Torna al catalogo

FENGYUN 1C DEB

AttivoSSO
NORAD 37716·DEBRIS·🇨🇳 China

Lanciato May 10, 1999 da Taiyuan Satellite Launch Center

Loading…

Prossimi Passaggi (prossime 24 ore)

TLE

AggiornatoSource: Space-Track

Epoca: Sep 12, 2026, 10:44 UTC

1 37716U 99025EMH 26255.44738898  .00001822  00000-0  71085-3 0  9997
2 37716  98.6636 320.7036 0034421 128.2236 248.7885 14.30542755644825

Traccia FENGYUN 1C DEB in tempo reale con AllMySat

Download on the App Store